User: anonymous
Location: Caltech
(34.1382°N, 118.1253°W)
Time: 14:06:44
(UTC-07:00)
Language:

GPS 2-04 Rocket1 - Orbit

View from above orbital plane
View from above orbital plane
View from above satellite
View from above satellite

Ground track
Ground track

The orbit data is extracted from the following two-line orbital elements,

1 20303U 89085B   14112.05210427  .00014664  00000-0  71552-3 0  7664
2 20303 035.6342 332.9837 0142399 155.1041 331.2507 15.08980151325406
Epoch (UTC): 22 April 2014 01:15:01
Eccentricity: 0.0142399
inclination: 35.6342°
perigee height: 441 km
apogee height: 638 km
right ascension of ascending node: 332.9837°
argument of perigee: 155.1041°
revolutions per day: 15.08980151
mean anomaly at epoch: 331.2507°
orbit number at epoch: 32540

The dashed part of the orbit path shows where the satellite is in the earth's shadow,  

DLR